Wind_Speed
3 3 2 2 1 1 2 3 3 2 2 2 3 3 3 3 3 4 4 5 5 4 4 4 4 4 4 4 4 5 5 5 5 5 5 5 6 6 6 6 6 6 6
3 3 2 1 1 0 1 1 2 2 2 2 3 3 4 4 4 4 5 5 5 4 5 5 5 5 5 4 5 5 5 6 6 6 6 6 6 6 6 6 7 6 6
3 3 3 2 1 1 1 1 1 1 2 2 3 4 4 4 5 5 5 5 5 5 5 5 5 5 5 5 5 6 6 6 6 7 7 7 7 7 7 7 7 7 7
3 3 2 2 1 1 1 1 1 1 2 2 3 4 5 5 5 6 6 6 6 6 6 6 6 6 6 5 5 6 6 6 6 7 7 7 7 8 8 8 7 7 7
3 3 3 2 1 1 1 1 1 2 1 2 3 4 5 5 6 6 6 6 6 6 6 7 6 6 6 6 5 5 6 6 6 7 7 7 7 8 9 8 8 8 8
4 3 3 2 2 1 1 1 2 2 2 2 4 5 5 5 6 6 7 7 7 6 6 7 7 6 6 6 6 5 5 6 6 7 7 7 7 7 8 9 8 8 8
4 4 4 3 2 1 0 1 2 2 2 3 4 4 5 6 7 7 7 7 7 6 7 7 7 7 6 6 6 6 6 6 6 6 7 7 7 7 8 9 8 9 9
5 5 5 4 3 2 1 2 2 2 2 3 4 5 5 6 7 7 7 7 6 7 7 7 7 7 6 6 6 6 6 6 6 6 6 7 7 7 8 9 9 9 9
6 6 6 5 4 3 2 1 1 1 2 3 4 5 6 6 7 7 7 7 7 7 7 7 7 6 6 6 5 6 6 6 6 7 7 7 8 8 8 9 9 9 10
6 6 6 5 4 2 2 2 1 2 2 3 4 5 5 6 6 6 7 7 7 7 7 7 6 6 6 6 6 6 6 6 7 7 7 8 8 9 9 9 9 10 10
7 7 7 5 4 2 2 2 2 2 2 3 3 4 5 6 6 6 6 7 7 7 6 6 6 6 7 7 7 7 7 7 7 7 7 8 9 10 10 10 10 11 11
7 7 7 6 4 3 2 2 2 1 2 2 3 4 5 5 6 6 7 7 7 7 6 6 6 7 7 8 8 8 7 7 7 7 7 8 9 9 10 10 11 11 11
8 8 7 6 5 4 3 2 2 1 2 2 3 4 5 5 5 6 7 7 7 7 6 6 6 7 7 7 8 8 7 7 7 7 7 8 8 9 9 10 11 11 11
8 8 8 7 5 5 4 3 2 1 2 3 3 4 4 4 5 6 6 7 7 7 6 7 7 7 7 7 7 7 7 7 7 7 7 7 8 8 9 10 11 11 11
8 8 8 7 6 6 4 3 2 1 2 3 3 3 4 4 5 5 6 6 7 7 7 6 6 7 7 7 6 6 6 6 6 6 6 7 7 8 8 9 10 11 12
8 8 8 8 7 6 5 4 2 2 2 3 3 4 4 4 5 5 6 7 7 7 7 7 6 6 6 6 6 6 5 5 5 5 6 6 7 7 8 8 9 10 11
8 7 8 7 7 6 5 4 3 2 2 3 3 3 3 4 5 5 6 7 7 7 7 6 6 6 6 5 5 5 5 4 4 4 5 5 6 7 8 8 8 9 10
8 7 7 7 6 6 5 4 3 2 2 2 2 3 3 4 4 5 6 7 7 7 7 7 7 6 6 5 5 5 4 4 4 4 4 5 5 6 7 8 9 9 9
7 7 6 6 6 6 5 4 3 2 2 1 2 2 3 3 4 5 5 7 7 7 7 7 7 7 6 6 5 5 5 4 4 4 4 5 5 5 6 7 8 9 9
8 7 6 6 6 6 5 4 3 2 2 2 1 2 2 3 4 4 5 6 7 7 7 7 7 7 7 6 6 5 4 4 4 4 4 4 5 5 6 7 7 8 9
8 7 7 6 6 6 5 5 4 3 2 2 1 2 3 3 3 4 5 6 7 7 8 8 8 7 7 7 6 6 5 4 4 3 4 4 5 5 6 7 8 8 10
8 7 6 6 6 6 6 5 5 4 3 2 2 2 2 3 3 4 5 5 6 7 7 7 8 7 7 7 7 6 5 5 4 4 3 4 5 5 6 7 7 8 9
8 7 6 6 5 5 5 5 5 4 3 3 2 2 2 3 3 4 4 5 6 7 7 7 7 7 7 7 6 6 6 5 5 5 4 4 5 5 6 7 7 8 10
8 7 7 6 5 5 5 5 5 4 4 3 2 2 3 3 3 3 4 5 6 6 7 7 7 7 7 7 7 6 6 6 5 5 5 5 5 6 6 7 8 9 10
8 8 7 6 6 6 5 5 5 4 4 3 3 3 3 3 4 4 5 5 6 6 7 7 6 7 7 7 7 7 6 6 6 6 6 7 7 7 8 8 9 10 10
9 8 7 7 7 6 6 5 5 5 5 4 4 3 3 4 4 4 5 6 6 6 7 7 7 6 7 7 7 7 7 7 7 7 7 8 8 9 9 9 10 11 11
Wind_Direction
121 113 103 88 102 127 124 106 82 74 71 58 41 17 19 17 2 354 352 348 344 343 344 337 327 320 299 273 262 262 260 256 252 248 243 241 238 231 227 226 220 217 216
134 127 126 120 142 140 136 105 76 65 50 48 35 17 16 9 354 344 344 343 339 336 333 329 327 323 310 286 270 264 261 259 253 248 247 246 242 234 231 232 225 220 216
144 147 149 142 109 58 104 89 67 40 37 20 13 5 357 351 342 340 338 333 330 326 325 322 321 319 311 297 282 271 261 261 256 249 249 248 245 238 234 234 229 224 218
154 159 163 162 143 98 104 89 41 19 23 7 358 355 349 342 335 336 337 330 327 323 322 318 316 315 309 301 289 279 266 261 257 255 252 248 246 243 237 235 227 222 219
176 176 167 165 163 118 61 30 24 18 17 2 354 352 347 343 339 336 335 331 328 322 317 316 312 312 306 299 291 280 272 266 261 258 253 248 249 241 235 234 230 225 220
187 183 182 186 168 145 90 32 19 18 20 5 355 354 347 340 337 335 334 332 326 322 315 313 312 308 303 297 288 279 275 270 266 259 252 249 244 235 232 231 230 225 220
189 191 187 184 181 197 224 0 343 2 12 355 349 346 337 330 331 332 331 326 322 320 316 313 310 304 301 294 284 277 277 272 266 262 256 248 242 238 234 229 226 225 222
202 199 193 192 197 213 244 319 334 339 351 346 349 347 341 337 333 332 330 327 321 319 318 315 312 306 301 294 287 279 278 270 267 264 258 250 243 238 237 233 228 224 223
200 201 195 197 203 220 248 278 313 320 329 335 341 342 342 339 335 329 331 331 325 320 319 316 311 306 300 296 289 283 279 271 269 265 260 253 245 237 235 235 231 227 225
202 203 198 197 200 216 237 262 278 306 319 328 336 339 340 336 335 334 336 335 330 322 318 315 309 305 301 296 291 286 281 271 267 263 258 252 244 240 235 233 232 229 228
207 203 196 198 204 211 220 247 274 303 326 332 345 346 340 334 337 340 341 340 335 329 323 317 310 303 299 296 291 288 283 276 268 264 259 253 249 244 238 234 233 231 229
203 205 204 207 208 210 224 247 274 309 331 337 343 339 337 337 338 339 341 339 336 334 329 321 312 306 301 298 294 290 286 278 269 263 259 254 252 247 240 235 233 232 231
203 202 205 205 208 212 224 239 254 292 330 339 339 334 335 340 343 341 344 341 336 337 332 324 316 310 306 304 299 293 287 278 270 263 256 252 251 250 244 238 235 234 232
201 204 208 211 214 216 222 232 243 319 358 355 344 335 343 344 346 343 343 343 345 345 336 330 324 321 314 308 302 295 287 281 277 265 256 250 250 249 246 240 236 233 232
204 211 211 214 219 222 224 233 256 306 337 342 343 344 348 351 351 348 348 350 348 347 340 333 329 326 320 312 306 300 296 285 274 268 258 251 250 248 246 240 235 232 230
204 209 212 217 220 226 228 232 252 292 314 323 335 345 353 359 356 353 358 356 349 344 342 337 333 332 328 324 319 313 306 296 279 269 259 254 251 248 245 242 236 233 230
205 208 210 214 217 224 225 229 243 269 295 320 336 349 355 356 354 358 1 356 351 349 345 343 343 341 337 330 328 326 317 307 291 276 261 256 252 250 246 242 238 232 229
206 208 210 209 213 217 220 222 236 262 285 315 337 345 348 351 355 360 2 359 357 358 356 353 351 349 343 338 331 324 315 305 294 279 264 257 252 250 249 244 238 234 232
205 209 207 209 212 216 216 213 230 250 272 290 319 340 348 352 357 360 1 2 5 5 4 2 360 357 352 348 340 329 318 306 297 285 271 260 257 253 250 246 240 236 234
205 211 210 210 211 214 214 210 219 233 257 275 300 330 341 350 359 1 360 3 4 3 4 3 4 1 359 358 355 345 332 317 305 291 276 265 259 254 249 246 243 239 235
209 212 210 207 207 214 216 215 223 234 255 267 288 313 327 342 354 358 360 2 0 3 3 1 0 359 359 360 359 354 346 333 318 303 285 272 264 259 255 250 249 244 238
210 209 210 209 210 217 222 225 233 234 248 265 286 306 323 335 346 353 354 355 356 360 1 3 3 2 1 1 1 358 349 339 327 316 302 288 279 271 265 260 253 251 245
212 208 208 212 218 221 228 232 236 239 247 262 280 297 316 326 333 344 349 351 357 2 2 3 3 5 4 2 1 358 355 348 338 325 316 307 295 285 275 266 260 256 254
209 212 211 218 222 223 224 225 230 238 244 257 272 285 303 313 320 331 342 347 354 359 0 2 1 359 0 360 356 351 350 349 344 335 324 315 306 299 292 278 267 263 261
213 218 220 222 223 222 223 226 231 239 236 248 265 276 296 305 312 323 333 338 346 352 356 358 357 354 354 356 354 349 347 346 343 335 324 316 309 301 297 290 279 271 266
216 220 223 225 226 224 225 229 233 237 239 253 264 272 289 303 313 321 328 333 340 346 352 355 353 351 349 347 346 343 339 337 333 329 322 317 312 305 297 293 286 279 272
Height
5882 5882 5882 5883 5883 5883 5883 5883 5883 5883 5883 5883 5883 5883 5883 5883 5883 5883 5884 5883 5883 5884 5883 5884 5883 5883 5883 5884 5884 5884 5885 5885 5886 5887 5887 5888 5889 5890 5891 5891 5892 5893 5894
5883 5883 5883 5883 5883 5883 5884 5883 5883 5883 5883 5883 5883 5883 5883 5883 5883 5883 5883 5883 5883 5883 5883 5883 5883 5883 5883 5883 5883 5884 5884 5884 5885 5886 5886 5887 5888 5889 5890 5891 5891 5892 5893
5883 5883 5883 5884 5884 5884 5884 5884 5883 5883 5883 5883 5883 5883 5883 5883 5883 5883 5883 5883 5882 5882 5882 5882 5882 5882 5882 5882 5882 5882 5883 5883 5884 5884 5885 5886 5887 5888 5889 5890 5891 5892 5893
5883 5883 5884 5884 5884 5884 5884 5884 5884 5883 5883 5884 5883 5883 5883 5883 5883 5883 5882 5882 5882 5882 5882 5881 5881 5881 5881 5881 5881 5881 5882 5882 5883 5883 5884 5885 5885 5886 5887 5888 5890 5891 5892
5883 5883 5884 5884 5884 5884 5884 5884 5884 5884 5884 5884 5884 5883 5883 5883 5882 5882 5882 5881 5881 5881 5881 5880 5880 5880 5880 5880 5880 5880 5881 5881 5882 5882 5883 5883 5883 5883 5885 5887 5888 5889 5891
5883 5883 5884 5884 5884 5885 5885 5884 5884 5884 5884 5884 5884 5883 5883 5882 5882 5881 5881 5881 5880 5880 5880 5879 5879 5879 5879 5879 5879 5879 5879 5880 5880 5881 5881 5882 5882 5883 5884 5886 5887 5888 5889
5882 5883 5884 5884 5885 5885 5885 5885 5884 5884 5884 5884 5884 5883 5883 5882 5882 5881 5880 5880 5879 5879 5879 5878 5878 5878 5878 5878 5878 5878 5878 5879 5879 5879 5880 5880 5881 5882 5883 5884 5886 5887 5888
5882 5883 5883 5884 5884 5885 5885 5885 5884 5884 5884 5884 5883 5883 5882 5882 5881 5880 5880 5879 5879 5878 5878 5877 5877 5877 5876 5876 5877 5877 5877 5877 5877 5878 5878 5879 5880 5881 5882 5883 5884 5885 5886
5881 5882 5883 5884 5884 5884 5885 5885 5884 5884 5884 5884 5883 5883 5882 5882 5881 5880 5879 5878 5878 5877 5877 5876 5876 5875 5875 5875 5875 5875 5876 5876 5876 5876 5877 5877 5878 5879 5880 5881 5882 5883 5885
5881 5882 5882 5883 5884 5884 5884 5884 5884 5884 5884 5884 5883 5883 5882 5881 5881 5880 5879 5878 5877 5876 5876 5875 5875 5874 5874 5874 5874 5874 5874 5874 5875 5875 5875 5876 5877 5877 5878 5880 5881 5882 5883
5880 5881 5882 5883 5883 5884 5884 5884 5884 5884 5884 5883 5883 5882 5882 5881 5880 5879 5878 5877 5876 5875 5875 5874 5874 5873 5873 5873 5872 5872 5872 5873 5873 5873 5874 5874 5875 5876 5877 5878 5879 5880 5881
5879 5880 5881 5882 5883 5883 5884 5884 5883 5884 5883 5883 5883 5882 5881 5881 5880 5879 5878 5877 5876 5875 5874 5873 5873 5872 5871 5871 5871 5871 5871 5871 5871 5872 5872 5872 5873 5874 5875 5876 5877 5878 5879
5878 5879 5880 5881 5882 5883 5883 5883 5883 5883 5883 5883 5882 5882 5881 5880 5880 5879 5878 5877 5875 5874 5873 5872 5872 5871 5870 5870 5869 5869 5869 5869 5869 5870 5870 5870 5871 5872 5873 5874 5875 5876 5877
5877 5879 5880 5881 5882 5882 5883 5883 5883 5883 5883 5882 5882 5882 5881 5880 5879 5878 5877 5876 5875 5874 5873 5872 5871 5870 5869 5868 5868 5868 5867 5867 5867 5868 5868 5869 5869 5870 5871 5872 5873 5874 5875
5877 5878 5879 5880 5881 5882 5882 5883 5883 5883 5883 5882 5882 5881 5881 5880 5879 5878 5877 5876 5875 5873 5872 5871 5870 5869 5868 5867 5866 5866 5866 5866 5865 5866 5866 5867 5867 5868 5869 5870 5871 5872 5874
5876 5877 5878 5879 5880 5881 5882 5882 5883 5882 5882 5882 5882 5881 5880 5880 5879 5878 5877 5876 5874 5873 5871 5870 5869 5868 5867 5866 5865 5865 5864 5864 5864 5864 5865 5865 5866 5866 5867 5868 5869 5871 5872
5875 5876 5877 5878 5879 5880 5881 5882 5882 5882 5882 5882 5881 5881 5880 5880 5879 5878 5877 5876 5874 5872 5871 5870 5868 5867 5866 5865 5864 5863 5863 5862 5862 5863 5863 5864 5864 5865 5865 5866 5867 5868 5870
5874 5876 5877 5878 5879 5880 5880 5881 5881 5882 5881 5881 5881 5880 5880 5879 5879 5878 5877 5876 5874 5872 5871 5869 5868 5867 5865 5864 5863 5863 5862 5861 5861 5861 5862 5862 5862 5863 5864 5864 5866 5867 5868
5874 5875 5876 5877 5878 5879 5879 5880 5881 5881 5881 5881 5881 5880 5880 5879 5879 5878 5877 5875 5874 5872 5871 5869 5868 5866 5865 5864 5863 5862 5861 5860 5860 5860 5860 5861 5861 5862 5862 5863 5864 5865 5866
5873 5874 5875 5876 5877 5878 5879 5880 5880 5880 5881 5880 5880 5880 5879 5879 5878 5877 5876 5875 5874 5872 5871 5869 5867 5866 5865 5863 5862 5861 5860 5859 5859 5859 5859 5860 5860 5860 5861 5862 5862 5864 5865
5872 5873 5874 5875 5876 5877 5878 5879 5879 5880 5880 5880 5880 5879 5879 5879 5878 5877 5876 5875 5874 5872 5871 5869 5867 5866 5864 5863 5862 5860 5859 5859 5858 5858 5858 5858 5859 5859 5860 5860 5861 5862 5863
5871 5873 5874 5875 5876 5876 5877 5878 5879 5879 5879 5879 5879 5879 5878 5878 5878 5877 5876 5875 5873 5872 5870 5869 5867 5866 5864 5863 5862 5860 5859 5859 5858 5858 5858 5858 5858 5858 5858 5859 5859 5860 5861
5870 5872 5873 5874 5875 5875 5876 5877 5878 5878 5878 5878 5878 5878 5878 5878 5877 5876 5875 5874 5873 5872 5870 5868 5867 5866 5864 5863 5862 5861 5859 5858 5858 5858 5857 5857 5857 5857 5857 5857 5858 5858 5859
5870 5871 5872 5873 5874 5874 5875 5876 5877 5877 5877 5878 5878 5877 5877 5877 5876 5875 5875 5874 5873 5871 5870 5868 5867 5866 5864 5863 5861 5860 5859 5858 5858 5857 5857 5857 5856 5856 5856 5856 5856 5857 5857
5869 5870 5871 5871 5872 5873 5874 5875 5875 5876 5876 5877 5877 5877 5876 5876 5875 5875 5874 5873 5872 5871 5870 5868 5867 5865 5864 5863 5861 5860 5859 5858 5858 5857 5857 5856 5856 5855 5855 5854 5854 5855 5855
5868 5868 5869 5870 5871 5872 5873 5874 5874 5875 5875 5876 5876 5875 5875 5875 5874 5874 5873 5872 5871 5870 5869 5868 5866 5865 5864 5863 5861 5860 5859 5858 5857 5856 5856 5855 5854 5854 5853 5853 5853 5853 5853